This is the latest recevied weather packets stored in our database for station/object KN6KS. If no packets are shown the sender has not sent any weather packets the latest 10 day(s).
| Time | Temp. | Humidity | Pressure | Rain* | Wind** | Luminosity | Snow |
|---|---|---|---|---|---|---|---|
| 1777937475 | 15.56° C | 50% | 1011.6 hPa | 0 mm | - | 445 W/m² | - |
| 1777937174 | 16.11° C | 48% | 1011.7 hPa | 0 mm | - | 485 W/m² | - |
| 1777936870 | 15.56° C | 48% | 1011.8 hPa | 0 mm | - | 503 W/m² | - |
| 1777936567 | 15.56° C | 54% | 1011.7 hPa | 0 mm | - | 510 W/m² | - |
| 1777936263 | 15.56° C | 53% | 1011.9 hPa | 0 mm | - | 573 W/m² | - |
| 1777935959 | 15.56° C | 54% | 1011.8 hPa | 0 mm | - | 553 W/m² | - |
| 1777935658 | 15.56° C | 53% | 1011.8 hPa | 0 mm | - | 128 W/m² | - |
| 1777935355 | 15.56° C | 53% | 1012 hPa | 0 mm | - | 549 W/m² | - |
| 1777935052 | 15.56° C | 53% | 1011.8 hPa | 0 mm | - | 108 W/m² | - |
| 1777934749 | 16.11° C | 52% | 1012.2 hPa | 0 mm | - | 607 W/m² | - |
| 1777934446 | 15.56° C | 51% | 1012 hPa | 0 mm | - | 689 W/m² | - |
| 1777934143 | 16.11° C | 51% | 1012.4 hPa | 0 mm | - | 269 W/m² | - |
| 1777933838 | 15° C | 51% | 1011.9 hPa | 0 mm | - | 628 W/m² | - |
| 1777933536 | 16.67° C | 48% | 1012.1 hPa | 0 mm | - | 168 W/m² | - |
| 1777933233 | 16.67° C | 43% | 1012.2 hPa | 0 mm | - | 248 W/m² | - |
| 1777932930 | 16.67° C | 42% | 1012.1 hPa | 0 mm | - | 685 W/m² | - |
| 1777932627 | 16.11° C | 44% | 1012.2 hPa | 0 mm | - | 706 W/m² | - |
| 1777932323 | 16.67° C | 43% | 1012.4 hPa | 0 mm | - | 655 W/m² | - |
| 1777932021 | 15.56° C | 50% | 1012.4 hPa | 0 mm | - | 697 W/m² | - |
| 1777931717 | 16.11° C | 49% | 1012.5 hPa | 0 mm | - | 574 W/m² | - |
| 1777931414 | 15.56° C | 49% | 1012.6 hPa | 0 mm | - | 813 W/m² | - |
| 1777931110 | 16.11° C | 48% | 1012.2 hPa | 0 mm | - | 192 W/m² | - |
| 1777930806 | 16.11° C | 48% | 1012.6 hPa | 0 mm | - | 638 W/m² | - |
| 1777930503 | 15.56° C | 46% | 1012.1 hPa | 0 mm | - | 704 W/m² | - |
| 1777930201 | 16.11° C | 48% | 1012.1 hPa | 0 mm | - | 255 W/m² | - |
* Rain latest hour (hover to see other rain measurements)
** Current wind speed in m/s (hover to see current wind gust speed)